When you browse on this site, cookies collect data to enhance your experience and personalize the content and advertising you see.
Visit our Privacy Policy to learn more. By continuing to use the site, you agree to this use of cookies and data.
  • In France
  • List of Countries
  • For 7 days
  • Water Temperature
  • Weather Map
  • Weather Widgets
  • user-avatar
    Login

    Hourly Weather Mongu

    Today, 26 August, Monday

    Time Temperature Precipitation Wind Pressure Humidity
    00:00 +16°C° 0 mm 2 mps 675 mmHg 19%
    01:00 +15°C° 0 mm 2 mps 675 mmHg 21%
    02:00 +15°C° 0 mm 2 mps 676 mmHg 26%
    03:00 +14°C° 0 mm 2 mps 676 mmHg 29%
    04:00 +13°C° 0 mm 2 mps 675 mmHg 32%
    05:00 +13°C° 0 mm 2 mps 675 mmHg 35%
    06:00 +14°C° 0 mm 2 mps 676 mmHg 35%
    07:00 +16°C° 0 mm 2 mps 677 mmHg 36%
    08:00 +18°C° 0 mm 2 mps 677 mmHg 36%
    09:00 +23°C° 0 mm 2 mps 678 mmHg 31%
    10:00 +27°C° 0 mm 2 mps 678 mmHg 26%
    11:00 +31°C° 0 mm 3 mps 679 mmHg 21%
    12:00 +34°C° 0 mm 2 mps 678 mmHg 19%
    13:00 +36°C° 0 mm 2 mps 677 mmHg 16%
    14:00 +37°C° 0 mm 2 mps 677 mmHg 13%
    15:00 +35°C° 0 mm 1 mps 676 mmHg 13%
    16:00 +34°C° 0 mm 1 mps 676 mmHg 13%
    17:00 +34°C° 0 mm 1 mps 675 mmHg 13%
    18:00 +31°C° 0 mm 1 mps 675 mmHg 16%
    19:00 +28°C° 0 mm 1 mps 675 mmHg 20%
    20:00 +25°C° 0 mm 1 mps 675 mmHg 23%
    21:00 +24°C° 0 mm 1 mps 675 mmHg 26%
    22:00 +23°C° 0 mm 1 mps 675 mmHg 29%
    23:00 +22°C° 0 mm 1 mps 675 mmHg 32%

    Tomorrow, 27 August, Tuesday

    Time Temperature Precipitation Wind Pressure Humidity
    00:00 +21°C° 0 mm 1 mps 675 mmHg 34%
    01:00 +20°C° 0 mm 1 mps 675 mmHg 36%
    02:00 +19°C° 0 mm 2 mps 674 mmHg 39%
    03:00 +18°C° 0 mm 2 mps 674 mmHg 42%
    04:00 +18°C° 0 mm 2 mps 674 mmHg 45%
    05:00 +17°C° 0 mm 2 mps 674 mmHg 48%
    06:00 +19°C° 0 mm 2 mps 675 mmHg 47%
    07:00 +21°C° 0 mm 2 mps 676 mmHg 45%
    08:00 +23°C° 0 mm 2 mps 676 mmHg 44%
    09:00 +27°C° 0 mm 2 mps 677 mmHg 36%
    10:00 +31°C° 0 mm 3 mps 677 mmHg 28%
    11:00 +35°C° 0 mm 3 mps 678 mmHg 20%
    12:00 +37°C° 0 mm 2 mps 677 mmHg 17%
    13:00 +37°C° 0 mm 1 mps 677 mmHg 14%
    14:00 +40°C° 0 mm 1 mps 676 mmHg 11%
    15:00 +38°C° 0 mm 2 mps 676 mmHg 14%
    16:00 +36°C° 0 mm 3 mps 675 mmHg 17%
    17:00 +35°C° 0 mm 4 mps 675 mmHg 19%
    18:00 +31°C° 0 mm 3 mps 674 mmHg 25%
    19:00 +28°C° 0 mm 2 mps 674 mmHg 30%
    20:00 +26°C° 0 mm 2 mps 674 mmHg 35%
    21:00 +25°C° 0 mm 2 mps 674 mmHg 37%
    22:00 +24°C° 0 mm 2 mps 674 mmHg 38%
    23:00 +24°C° 0 mm 2 mps 674 mmHg 39%

    Day after tomorrow, 28 August, Wednesday

    Time Temperature Precipitation Wind Pressure Humidity
    00:00 +23°C° 0 mm 2 mps 674 mmHg 41%
    01:00 +21°C° 0 mm 2 mps 674 mmHg 43%
    02:00 +21°C° 0 mm 2 mps 674 mmHg 45%
    03:00 +21°C° 0 mm 1 mps 673 mmHg 49%
    04:00 +19°C° 0 mm 1 mps 673 mmHg 52%
    05:00 +18°C° 0 mm 1 mps 672 mmHg 55%
    06:00 +20°C° 0 mm 1 mps 673 mmHg 51%
    07:00 +21°C° 0 mm 1 mps 674 mmHg 47%
    08:00 +23°C° 0 mm 1 mps 675 mmHg 43%
    09:00 +27°C° 0 mm 1 mps 676 mmHg 35%
    10:00 +31°C° 0 mm 1 mps 676 mmHg 28%
    11:00 +36°C° 0 mm 2 mps 677 mmHg 20%
    12:00 +37°C° 0 mm 1 mps 676 mmHg 17%
    13:00 +40°C° 0 mm 1 mps 676 mmHg 14%
    14:00 +42°C° 0 mm 1 mps 676 mmHg 11%
    15:00 +40°C° 0 mm 1 mps 675 mmHg 12%
    16:00 +37°C° 0 mm 1 mps 674 mmHg 13%
    17:00 +36°C° 0 mm 1 mps 674 mmHg 14%
    18:00 +34°C° 0 mm 2 mps 674 mmHg 17%
    19:00 +30°C° 0 mm 2 mps 674 mmHg 20%
    20:00 +28°C° 0 mm 2 mps 674 mmHg 23%
    21:00 +27°C° 0 mm 2 mps 674 mmHg 26%
    22:00 +26°C° 0 mm 2 mps 674 mmHg 28%
    23:00 +25°C° 0 mm 3 mps 674 mmHg 31%

    29 August, Thursday

    Time Temperature Precipitation Wind Pressure Humidity
    00:00 +24°C° 0 mm 2 mps 674 mmHg 33%
    01:00 +23°C° 0 mm 2 mps 673 mmHg 35%
    02:00 +23°C° 0 mm 2 mps 673 mmHg 37%
    03:00 +21°C° 0 mm 2 mps 673 mmHg 38%
    04:00 +21°C° 0 mm 2 mps 673 mmHg 39%
    05:00 +20°C° 0 mm 2 mps 673 mmHg 40%
    06:00 +22°C° 0 mm 3 mps 673 mmHg 36%
    07:00 +25°C° 0 mm 3 mps 674 mmHg 32%
    08:00 +26°C° 0 mm 4 mps 675 mmHg 29%
    09:00 +30°C° 0 mm 4 mps 676 mmHg 24%
    10:00 +34°C° 0 mm 3 mps 676 mmHg 19%
    11:00 +38°C° 0 mm 3 mps 677 mmHg 14%
    12:00 +39°C° 0 mm 2 mps 676 mmHg 12%
    13:00 +40°C° 0 mm 2 mps 675 mmHg 11%
    14:00 +41°C° 0 mm 2 mps 674 mmHg 10%
    15:00 +40°C° 0 mm 2 mps 674 mmHg 10%
    16:00 +39°C° 0 mm 2 mps 673 mmHg 11%
    17:00 +39°C° 0 mm 2 mps 673 mmHg 11%
    18:00 +35°C° 0 mm 2 mps 673 mmHg 14%
    19:00 +31°C° 0 mm 1 mps 672 mmHg 18%
    20:00 +27°C° 0 mm 1 mps 672 mmHg 21%
    21:00 +26°C° 0 mm 1 mps 672 mmHg 23%
    22:00 +26°C° 0 mm 1 mps 672 mmHg 25%
    23:00 +25°C° 0 mm 2 mps 672 mmHg 27%

    30 August, Friday

    Time Temperature Precipitation Wind Pressure Humidity
    00:00 +24°C° 0 mm 2 mps 672 mmHg 29%
    01:00 +23°C° 0 mm 2 mps 672 mmHg 30%
    02:00 +21°C° 0 mm 2 mps 672 mmHg 32%
    03:00 +21°C° 0 mm 2 mps 672 mmHg 32%
    04:00 +21°C° 0 mm 2 mps 672 mmHg 32%
    05:00 +20°C° 0 mm 3 mps 672 mmHg 32%
    06:00 +21°C° 0 mm 3 mps 673 mmHg 31%
    07:00 +23°C° 0 mm 4 mps 674 mmHg 29%
    08:00 +25°C° 0 mm 4 mps 674 mmHg 27%
    09:00 +28°C° 0 mm 5 mps 675 mmHg 23%
    10:00 +33°C° 0 mm 5 mps 675 mmHg 19%
    11:00 +36°C° 0 mm 5 mps 676 mmHg 15%
    12:00 +37°C° 0 mm 4 mps 675 mmHg 14%
    13:00 +39°C° 0 mm 3 mps 674 mmHg 12%
    14:00 +41°C° 0 mm 2 mps 674 mmHg 11%
    15:00 +40°C° 0 mm 2 mps 673 mmHg 11%
    16:00 +40°C° 0 mm 1 mps 673 mmHg 11%
    17:00 +39°C° 0 mm 1 mps 672 mmHg 11%
    18:00 +35°C° 0 mm 1 mps 672 mmHg 14%
    19:00 +32°C° 0 mm 1 mps 672 mmHg 17%
    20:00 +28°C° 0 mm 1 mps 672 mmHg 20%
    21:00 +27°C° 0 mm 1 mps 672 mmHg 21%
    22:00 +26°C° 0 mm 1 mps 672 mmHg 22%
    23:00 +25°C° 0 mm 1 mps 672 mmHg 23%

    31 August, Saturday

    Time Temperature Precipitation Wind Pressure Humidity
    00:00 +25°C° 0 mm 1 mps 671 mmHg 24%
    01:00 +24°C° 0 mm 2 mps 671 mmHg 25%
    02:00 +23°C° 0 mm 2 mps 671 mmHg 26%
    03:00 +23°C° 0 mm 2 mps 671 mmHg 28%
    04:00 +21°C° 0 mm 2 mps 671 mmHg 30%
    05:00 +20°C° 0 mm 2 mps 671 mmHg 32%
    06:00 +23°C° 0 mm 2 mps 672 mmHg 30%
    07:00 +24°C° 0 mm 3 mps 673 mmHg 27%
    08:00 +26°C° 0 mm 4 mps 673 mmHg 25%
    09:00 +29°C° 0 mm 4 mps 674 mmHg 21%
    10:00 +33°C° 0 mm 4 mps 674 mmHg 18%
    11:00 +37°C° 0 mm 4 mps 675 mmHg 14%
    12:00 +39°C° 0 mm 3 mps 674 mmHg 12%
    13:00 +41°C° 0 mm 2 mps 674 mmHg 10%
    14:00 +43°C° 0 mm 1 mps 673 mmHg 9%
    15:00 +42°C° 0 mm 1 mps 673 mmHg 9%
    16:00 +41°C° 0 mm 1 mps 672 mmHg 9%
    17:00 +40°C° 0 mm 1 mps 672 mmHg 10%
    18:00 +35°C° 0 mm 1 mps 671 mmHg 12%
    19:00 +32°C° 0 mm 1 mps 671 mmHg 15%
    20:00 +29°C° 0 mm 1 mps 671 mmHg 18%
    21:00 +28°C° 0 mm 2 mps 671 mmHg 19%
    22:00 +27°C° 0 mm 2 mps 672 mmHg 20%
    23:00 +27°C° 0 mm 3 mps 672 mmHg 21%
    Show more